Regional Weather Roundup
Issued by NWS

Home | Current Version | Previous Version | Graphics & Text | Print | Product List | Glossary On
Versions: 1 2 3 4 5 6 7 8 9 10 11 12 13 14 15 16 17 18 19 20 21 22 23 24 25 26 27 28 29 30 31 32 33 34 35 36 37 38 39 40 41 42 43 44 45 46 47 48 49 50
000
ASUS43 KOAX 260710
RWRNE

WEATHER ROUNDUP FOR NEBRASKA
NATIONAL WEATHER SERVICE OMAHA NE
100 AM CST WED NOV 26 2014

NOTES: SATELLITE DATA IS BEING USED TO AUGMENT CLOUD COVER ABOVE
       12000 FEET.
       "FAIR" INDICATES FEW OR NO CLOUDS BELOW 12,000 FEET WITH NO
       SIGNIFICANT WEATHER AND/OR OBSTRUCTIONS TO VISIBILITY.

  * THESE STATIONS DO NOT REPORT WEATHER SUCH AS RAIN...SNOW OR FOG.

NEZ001>004-019>022-054>056-260800-
NEBRASKA PANHANDLE

CITY           SKY/WX    TMP DP  RH WIND       PRES   REMARKS
SCOTTSBLUFF    CLOUDY    31  25  78 W13       30.09R WCI  21
ALLIANCE       CLOUDY    33  22  63 NW24G35   30.02R WCI  20
CHADRON        CLOUDY    43  25  49 NW22G35   30.06R
KIMBALL        LGT SNOW  28  25  87 NW12G20   30.05F WCI  18
SIDNEY         CLOUDY    30  24  78 NW21      30.06R WCI  17
$$

NEZ057>060-069>072-079>082-260800-
SOUTHWEST NEBRASKA

CITY           SKY/WX    TMP DP  RH WIND       PRES   REMARKS
NORTH PLATTE   CLOUDY    35  32  88 NW9       29.98R WCI  28
IMPERIAL       CLOUDY    37  29  72 NW15      30.03R WCI  28
LEXINGTON      CLOUDY    38  28  69 NW10      29.96S WCI  30
MCCOOK         CLOUDY    41  30  65 NW20G25   30.01R
OGALLALA       CLOUDY    38  27  63 NW18G26   30.02R WCI  28
$$

NEZ005>010-023>029-035>040-094-260800-
NORTH CENTRAL NEBRASKA

CITY           SKY/WX    TMP DP  RH WIND       PRES   REMARKS
VALENTINE      CLOUDY    35  25  66 NW18G32   29.94R WCI  24
AINSWORTH      CLOUDY    36  26  67 NW23G31   29.92R WCI  24
BROKEN BOW     MOCLDY    37  25  61 NW22      29.93R WCI  26
O`NEILL        CLOUDY    37  32  81 NW21G26   29.87R WCI  26
ORD            PTCLDY    35  27  72 W15       29.90R WCI  25
THEDFORD       CLOUDY    37  24  59 NW20G26   29.96R WCI  26
$$

NEZ041-046>049-061>064-073>077-083>087-260800-
SOUTH CENTRAL NEBRASKA

CITY           SKY/WX    TMP DP  RH WIND       PRES   REMARKS
GRAND ISLAND   PTCLDY    36  29  75 NW15      29.91R WCI  27
AURORA         PTCLDY    35  29  80 W13       29.89S WCI  26
HASTINGS       MOCLDY    38  28  67 NW15      29.91R WCI  29
HEBRON         CLOUDY    42  30  61 NW9       29.91S
HOLDREGE       CLOUDY    39  28  64 NW13      29.95R WCI  32
KEARNEY *      CLOUDY    39  27  60 W14       29.94S WCI  31
YORK           PTCLDY    36  32  87 W13       29.88R WCI  27
$$

NEZ011>018-030>034-042>045-260800-
NORTHEAST NEBRASKA

CITY           SKY/WX    TMP DP  RH WIND       PRES   REMARKS
NORFOLK        CLOUDY    37  33  85 W13       29.82S WCI  29
ALBION         CLEAR     36  29  78 NW14      29.86S WCI  27
BLAIR          DRIZZLE   38  35  89 S9        29.81F WCI  31
COLUMBUS *     MOCLDY    36  28  75 W9        29.86S WCI  29
FREMONT        FAIR      36  35  94 W7        29.82S WCI  30
TEKAMAH        CLOUDY    36  29  75 CALM      29.81
WAYNE          CLOUDY    36  34  92 NW9       29.82S WCI  29
$$

NEZ050>053-065>068-078-088>093-260800-
SOUTHEAST NEBRASKA

CITY           SKY/WX    TMP DP  RH WIND       PRES   REMARKS
LINCOLN        MOCLDY    40  33  76 NW15G23   29.86S WCI  32
OMAHA EPPLEY   LGT RAIN  37  33  85 S14       29.84F WCI  28
BEATRICE       DRIZZLE   40  35  81 W12       29.88S WCI  33
FALLS CITY     CLOUDY    40  24  53 S9        29.90F WCI  34
NEBRASKA CITY  LGT RAIN  38  32  78 SW17G28   29.85F WCI  29
PLATTSMOUTH    LGT RAIN  36  32  87 S9        29.84F WCI  29
$$

NEZ044-045-051>053-067-260800-
OMAHA AREA

CITY           SKY/WX    TMP DP  RH WIND       PRES   REMARKS
OMAHA EPPLEY   LGT RAIN  37  33  85 S14       29.84F WCI  28
BLAIR          DRIZZLE   38  35  89 S9        29.81F WCI  31
FREMONT        FAIR      36  35  94 W7        29.82S WCI  30
MILLARD        LGT RAIN  39  35  87 CALM      29.83F
OFFUTT AFB     LGT RAIN  37  33  85 S10       29.83F WCI  30
PLATTSMOUTH    LGT RAIN  36  32  87 S9        29.84F WCI  29
WAHOO          FAIR      37  32  82 NW10      29.82F WCI  30
$$


USA.gov is the U.S. government's official web portal to all federal, state and local government web resources and services.